EW1382 Weather Reports


Display with metric or nautical units.
time (UTC)temp
F
wind
direction
speed
MPH
gust
MPH
rain 1hr
in
rain 24hr
in
rain mn
in
humidity
%
barometer
mb
20180621024831 56 130 0.0 0.0 0.00 0.01 0.01 89 1009.0
20180621023320 57 130 0.0 0.0 0.00 0.01 0.01 89 1009.1
20180621021830 58 130 0.0 0.0 0.00 0.01 0.01 88 1009.1
20180621020335 59 130 0.0 0.0 0.00 0.01 0.01 87 1009.0
20180621014821 60 130 0.0 0.0 0.00 0.01 0.01 86 1008.8
20180621013335 61 130 0.0 0.0 0.00 0.01 0.01 84 1008.8
20180621011821 63 129 0.0 0.0 0.00 0.01 0.01 83 1008.6
20180621010335 64 327 0.0 0.0 0.00 0.01 0.01 78 1008.7
20180621004842 65 327 0.0 0.0 0.00 0.01 0.01 76 1008.8
20180621003331 67 328 0.0 1.0 0.00 0.01 0.01 74 1008.6
20180621001837 69 21 0.0 1.0 0.00 0.01 0.01 68 1008.6
20180621000327 72 23 0.0 1.0 0.00 0.01 0.01 68 1008.7
20180620234832 72 23 0.0 3.0 0.00 0.01 0.01 66 1008.7
20180620233321 75 56 0.0 1.0 0.00 0.01 0.01 60 1008.8
20180620231832 75 16 0.0 2.0 0.00 0.01 0.01 62 1008.7
20180620230337 74 350 0.0 4.0 0.00 0.01 0.01 57 1008.8
20180620224818 74 31 3.0 6.0 0.00 0.01 0.01 59 1008.7
20180620223334 76 32 3.0 6.0 0.00 0.01 0.01 56 1008.7
20180620221820 77 8 1.0 4.0 0.00 0.01 0.01 49 1008.8
20180620220334 78 48 1.0 4.0 0.00 0.01 0.01 46 1008.9
20180620214839 77 283 2.0 3.0 0.00 0.01 0.01 47 1009.0
20180620213321 76 335 1.0 5.0 0.00 0.01 0.01 51 1008.9
20180620211822 76 304 2.0 4.0 0.00 0.01 0.01 50 1009.0
20180620210333 76 282 1.0 2.0 0.00 0.01 0.01 53 1009.2
20180620204818 75 236 1.0 2.0 0.00 0.01 0.01 55 1009.3
20180620203326 76 288 0.0 3.0 0.00 0.01 0.01 56 1009.4
20180620201836 76 345 1.0 3.0 0.00 0.01 0.01 54 1009.6
20180620200321 76 276 1.0 3.0 0.00 0.01 0.01 57 1009.7
20180620194827 76 39 2.0 4.0 0.00 0.01 0.01 56 1009.8
20180620193330 75 196 1.0 4.0 0.00 0.01 0.01 57 1009.9
20180620191836 75 205 1.0 4.0 0.00 0.01 0.01 56 1010.0
20180620190331 73 198 1.0 2.0 0.00 0.01 0.01 68 1010.2
20180620184832 73 14 2.0 4.0 0.00 0.01 0.01 68 1010.4
20180620183320 73 360 2.0 5.0 0.00 0.01 0.01 65 1010.3
20180620181831 74 153 0.0 2.0 0.00 0.01 0.01 66 1010.2
20180620180320 72 43 1.0 2.0 0.00 0.01 0.01 67 1010.4
20180620174830 71 123 1.0 5.0 0.00 0.01 0.01 69 1010.4
20180620173335 70 82 0.0 2.0 0.00 0.01 0.01 73 1010.7
20180620171823 68 125 0.0 0.0 0.01 0.01 0.01 78 1010.8
20180620170334 67 148 0.0 0.0 0.01 0.01 0.01 80 1010.8
20180620164820 67 105 0.0 4.0 0.01 0.01 0.01 81 1011.2
20180620163334 67 33 3.0 5.0 0.00 0.00 0.00 77 1011.3
20180620161819 69 59 2.0 3.0 0.00 0.00 0.00 72 1011.1
20180620160333 69 120 0.0 1.0 0.00 0.00 0.00 68 1011.4
20180620154819 70 125 4.0 6.0 0.00 0.00 0.00 64 1011.6
20180620153329 71 129 2.0 2.0 0.00 0.00 0.00 63 1011.8
20180620151830 70 193 2.0 4.0 0.00 0.00 0.00 62 1011.9
20180620150319 70 67 1.0 4.0 0.00 0.00 0.00 65 1011.6
20180620144825 69 139 1.0 4.0 0.00 0.00 0.00 71 1011.4
20180620143330 68 123 3.0 6.0 0.00 0.00 0.00 70 1011.6
20180620141831 68 128 4.0 7.0 0.00 0.00 0.00 73 1011.5
20180620140325 67 142 2.0 4.0 0.00 0.00 0.00 75 1012.1
20180620134831 65 206 1.0 3.0 0.00 0.00 0.00 83 1012.4
20180620133326 63 129 0.0 1.0 0.00 0.00 0.00 91 1012.5
20180620131832 62 113 1.0 3.0 0.00 0.00 0.00 94 1012.3
20180620130326 61 127 1.0 1.0 0.00 0.00 0.00 95 1012.5
20180620124831 60 160 0.0 0.0 0.00 0.00 0.00 96 1012.7
20180620123321 59 150 0.0 0.0 0.00 0.00 0.00 96 1012.9
20180620121832 58 145 0.0 0.0 0.00 0.00 0.00 96 1012.8
20180620120337 58 174 0.0 0.0 0.00 0.00 0.00 96 1012.8
20180620114827 57 142 0.0 1.0 0.00 0.00 0.00 96 1013.0
20180620113337 56 144 0.0 1.0 0.00 0.00 0.00 96 1013.2
20180620111827 55 160 0.0 0.0 0.00 0.00 0.00 96 1013.3
20180620110337 55 160 0.0 0.0 0.00 0.00 0.00 96 1013.2
20180620104837 54 160 0.0 0.0 0.00 0.00 0.00 96 1012.9
20180620103333 53 160 0.0 0.0 0.00 0.00 0.00 96 1012.8
20180620101837 52 203 0.0 0.0 0.00 0.00 0.00 96 1012.9
20180620100331 51 203 0.0 0.0 0.00 0.00 0.00 96 1013.0
20180620094837 50 203 0.0 0.0 0.00 0.00 0.00 95 1013.0
20180620093327 50 203 0.0 0.0 0.00 0.00 0.00 95 1013.1
20180620090322 51 203 0.0 0.0 0.00 0.00 0.00 95 1012.8
20180620084833 51 203 0.0 0.0 0.00 0.00 0.00 95 1012.7
20180620083322 52 203 0.0 0.0 0.00 0.00 0.00 95 1012.6
20180620081834 51 203 0.0 0.0 0.00 0.00 0.00 95 1012.5
20180620080322 51 203 0.0 0.0 0.00 0.00 0.00 94 1012.4
20180620074823 52 203 0.0 0.0 0.00 0.00 0.00 94 1012.6
20180620073336 52 203 0.0 0.0 0.00 0.00 0.00 94 1012.6
20180620071822 52 203 0.0 0.0 0.00 0.00 0.00 94 1012.6
20180620070336 53 203 0.0 0.0 0.00 0.00 0.00 94 1012.6
20180620064821 53 204 0.0 0.0 0.00 0.02 0.00 94 1012.7
20180620063331 53 204 0.0 0.0 0.00 0.02 0.00 93 1012.7
20180620061821 54 204 0.0 0.0 0.00 0.02 0.00 94 1013.0
20180620060331 55 204 0.0 0.0 0.00 0.02 0.00 93 1012.9
20180620054821 55 204 0.0 0.0 0.00 0.02 0.00 93 1013.1
20180620053331 56 204 0.0 0.0 0.00 0.02 0.00 92 1013.2
20180620051821 57 204 0.0 0.0 0.00 0.02 0.00 92 1013.3
20180620050331 57 204 0.0 0.0 0.00 0.02 0.00 92 1013.4
20180620044837 58 204 0.0 0.0 0.00 0.02 0.00 92 1013.4
20180620043331 58 204 0.0 0.0 0.00 0.02 0.00 91 1013.5
20180620041837 58 204 0.0 0.0 0.00 0.02 0.00 91 1013.5
20180620040321 58 204 0.0 1.0 0.00 0.02 0.00 90 1013.6
20180620034829 59 301 0.0 0.0 0.00 0.02 0.02 90 1013.7
20180620033337 59 300 0.0 0.0 0.00 0.02 0.02 88 1013.8
20180620031824 59 301 0.0 1.0 0.00 0.02 0.02 88 1013.7
20180620030323 59 328 0.0 0.0 0.00 0.02 0.02 85 1013.5